When you browse on this site, cookies collect data to enhance your experience and personalize the content and advertising you see.
Visit our Privacy Policy to learn more. By continuing to use the site, you agree to this use of cookies and data.
  • în România
  • Lista ţărilor
  • Pe 7 zile
  • Temperatura apei
  • Meteo pe hartă
  • Widget-uri
  • user-avatar
    Intrare

    Meteo pe oră la Pathiu

    Astăzi, 31 Mai, Duminică

    Timp Temperatura Precipitaţii Vânt Presiune Umiditate
    00:00 +28°C° 0 mm 1 m/s 758 mmHg 91%
    01:00 +28°C° 0 mm 1 m/s 758 mmHg 92%
    02:00 +28°C° 0 mm 1 m/s 758 mmHg 92%
    03:00 +27°C° 0 mm 1 m/s 757 mmHg 93%
    04:00 +27°C° 0 mm 1 m/s 757 mmHg 93%
    05:00 +28°C° 0 mm 1 m/s 757 mmHg 92%
    06:00 +28°C° 0 mm 1 m/s 757 mmHg 91%
    07:00 +26°C° 0 mm 0 m/s 758 mmHg 89%
    08:00 +29°C° 0 mm 0 m/s 758 mmHg 78%
    09:00 +31°C° 0 mm 0 m/s 758 mmHg 67%
    10:00 +34°C° 0 mm 0 m/s 758 mmHg 56%
    11:00 +36°C° 0.2 mm 1 m/s 758 mmHg 55%
    12:00 +37°C° 0.2 mm 1 m/s 758 mmHg 55%
    13:00 +38°C° 0 mm 2 m/s 757 mmHg 56%
    14:00 +36°C° 3 mm 2 m/s 757 mmHg 64%
    15:00 +33°C° 3 mm 1 m/s 756 mmHg 73%
    16:00 +32°C° 3 mm 1 m/s 756 mmHg 81%
    17:00 +31°C° 1.5 mm 1 m/s 756 mmHg 84%
    18:00 +30°C° 1.5 mm 2 m/s 757 mmHg 88%
    19:00 +29°C° 1.5 mm 2 m/s 757 mmHg 91%
    20:00 +28°C° 0.1 mm 2 m/s 757 mmHg 92%
    21:00 +28°C° 0.1 mm 2 m/s 758 mmHg 92%
    22:00 +28°C° 0.1 mm 2 m/s 758 mmHg 92%
    23:00 +28°C° 0 mm 2 m/s 758 mmHg 92%

    Mâine, 1 Iunie, Luni

    Timp Temperatura Precipitaţii Vânt Presiune Umiditate
    00:00 +27°C° 0 mm 2 m/s 758 mmHg 92%
    01:00 +27°C° 0 mm 1 m/s 757 mmHg 93%
    02:00 +27°C° 0 mm 1 m/s 757 mmHg 93%
    03:00 +27°C° 0 mm 1 m/s 757 mmHg 93%
    04:00 +27°C° 0 mm 1 m/s 756 mmHg 93%
    05:00 +27°C° 0 mm 1 m/s 757 mmHg 92%
    06:00 +28°C° 0 mm 1 m/s 757 mmHg 90%
    07:00 +28°C° 0 mm 1 m/s 757 mmHg 89%
    08:00 +30°C° 0 mm 1 m/s 758 mmHg 79%
    09:00 +32°C° 0 mm 1 m/s 758 mmHg 70%
    10:00 +34°C° 0 mm 1 m/s 758 mmHg 60%
    11:00 +35°C° 0.2 mm 1 m/s 758 mmHg 58%
    12:00 +36°C° 0.2 mm 1 m/s 758 mmHg 57%
    13:00 +37°C° 0.2 mm 2 m/s 757 mmHg 55%
    14:00 +36°C° 0.7 mm 2 m/s 757 mmHg 60%
    15:00 +35°C° 0.7 mm 2 m/s 756 mmHg 64%
    16:00 +34°C° 0.7 mm 2 m/s 755 mmHg 68%
    17:00 +32°C° 0.1 mm 2 m/s 756 mmHg 73%
    18:00 +31°C° 0.1 mm 2 m/s 756 mmHg 78%
    19:00 +30°C° 0.1 mm 2 m/s 756 mmHg 83%
    20:00 +29°C° 0 mm 2 m/s 757 mmHg 84%
    21:00 +29°C° 0 mm 2 m/s 757 mmHg 86%
    22:00 +29°C° 0 mm 2 m/s 758 mmHg 88%
    23:00 +28°C° 0 mm 2 m/s 758 mmHg 89%

    Poimâine, 2 Iunie, Marţi

    Timp Temperatura Precipitaţii Vânt Presiune Umiditate
    00:00 +28°C° 0 mm 2 m/s 757 mmHg 89%
    01:00 +28°C° 0 mm 2 m/s 757 mmHg 90%
    02:00 +28°C° 0.1 mm 2 m/s 757 mmHg 91%
    03:00 +28°C° 0.1 mm 2 m/s 756 mmHg 92%
    04:00 +27°C° 0.1 mm 2 m/s 756 mmHg 93%
    05:00 +28°C° 0 mm 2 m/s 756 mmHg 91%
    06:00 +28°C° 0 mm 2 m/s 756 mmHg 90%
    07:00 +28°C° 0 mm 2 m/s 757 mmHg 88%
    08:00 +30°C° 0 mm 2 m/s 757 mmHg 81%
    09:00 +32°C° 0 mm 2 m/s 757 mmHg 73%
    10:00 +35°C° 0 mm 2 m/s 757 mmHg 66%
    11:00 +35°C° 1.1 mm 2 m/s 757 mmHg 67%
    12:00 +35°C° 1.1 mm 2 m/s 757 mmHg 68%
    13:00 +35°C° 1.1 mm 2 m/s 756 mmHg 70%
    14:00 +34°C° 1.7 mm 2 m/s 756 mmHg 72%
    15:00 +34°C° 1.7 mm 2 m/s 755 mmHg 74%
    16:00 +32°C° 1.7 mm 2 m/s 754 mmHg 76%
    17:00 +31°C° 0.1 mm 2 m/s 755 mmHg 79%
    18:00 +30°C° 0.1 mm 3 m/s 755 mmHg 81%
    19:00 +29°C° 0.1 mm 3 m/s 755 mmHg 84%
    20:00 +29°C° 0 mm 3 m/s 756 mmHg 86%
    21:00 +28°C° 0 mm 3 m/s 756 mmHg 87%
    22:00 +28°C° 0 mm 2 m/s 756 mmHg 89%
    23:00 +28°C° 0 mm 2 m/s 756 mmHg 90%

    3 Iunie, Miercuri

    Timp Temperatura Precipitaţii Vânt Presiune Umiditate
    00:00 +28°C° 0 mm 2 m/s 756 mmHg 90%
    01:00 +27°C° 0 mm 2 m/s 756 mmHg 91%
    02:00 +27°C° 0 mm 2 m/s 756 mmHg 92%
    03:00 +27°C° 0 mm 2 m/s 755 mmHg 92%
    04:00 +27°C° 0 mm 3 m/s 755 mmHg 93%
    05:00 +28°C° 0 mm 2 m/s 755 mmHg 92%
    06:00 +28°C° 0 mm 2 m/s 756 mmHg 90%
    07:00 +28°C° 0 mm 2 m/s 756 mmHg 89%
    08:00 +30°C° 0 mm 2 m/s 756 mmHg 81%
    09:00 +32°C° 0 mm 2 m/s 756 mmHg 73%
    10:00 +35°C° 0 mm 2 m/s 757 mmHg 65%
    11:00 +35°C° 1.6 mm 2 m/s 756 mmHg 67%
    12:00 +35°C° 1.6 mm 2 m/s 756 mmHg 69%
    13:00 +34°C° 1.6 mm 2 m/s 755 mmHg 71%
    14:00 +34°C° 1.5 mm 3 m/s 755 mmHg 73%
    15:00 +33°C° 1.5 mm 3 m/s 754 mmHg 76%
    16:00 +33°C° 1.5 mm 3 m/s 754 mmHg 78%
    17:00 +31°C° 0.6 mm 3 m/s 754 mmHg 80%
    18:00 +30°C° 0.6 mm 3 m/s 755 mmHg 82%
    19:00 +29°C° 0.6 mm 3 m/s 755 mmHg 84%
    20:00 +28°C° 0 mm 3 m/s 755 mmHg 86%
    21:00 +28°C° 0 mm 3 m/s 756 mmHg 88%
    22:00 +28°C° 0 mm 3 m/s 756 mmHg 89%
    23:00 +28°C° 0 mm 3 m/s 756 mmHg 90%

    4 Iunie, Joi

    Timp Temperatura Precipitaţii Vânt Presiune Umiditate
    00:00 +28°C° 0 mm 3 m/s 756 mmHg 91%
    01:00 +28°C° 0 mm 3 m/s 755 mmHg 92%
    02:00 +28°C° 0 mm 3 m/s 755 mmHg 93%
    03:00 +27°C° 0 mm 3 m/s 755 mmHg 94%
    04:00 +27°C° 0 mm 2 m/s 755 mmHg 95%
    05:00 +28°C° 0 mm 2 m/s 755 mmHg 93%
    06:00 +28°C° 0 mm 2 m/s 755 mmHg 92%
    07:00 +28°C° 0 mm 2 m/s 756 mmHg 90%
    08:00 +30°C° 0 mm 3 m/s 756 mmHg 81%
    09:00 +33°C° 0 mm 3 m/s 756 mmHg 72%
    10:00 +35°C° 0 mm 3 m/s 757 mmHg 63%
    11:00 +35°C° 0.1 mm 3 m/s 756 mmHg 60%
    12:00 +36°C° 0.1 mm 3 m/s 756 mmHg 58%
    13:00 +37°C° 0.1 mm 3 m/s 755 mmHg 55%
    14:00 +36°C° 0.8 mm 3 m/s 755 mmHg 57%
    15:00 +36°C° 0.8 mm 3 m/s 754 mmHg 59%
    16:00 +35°C° 0.8 mm 3 m/s 754 mmHg 61%
    17:00 +33°C° 0 mm 3 m/s 754 mmHg 68%
    18:00 +31°C° 0 mm 3 m/s 754 mmHg 74%
    19:00 +30°C° 0 mm 4 m/s 754 mmHg 80%
    20:00 +29°C° 0 mm 3 m/s 755 mmHg 82%
    21:00 +29°C° 0 mm 3 m/s 756 mmHg 85%
    22:00 +29°C° 0 mm 3 m/s 757 mmHg 87%
    23:00 +28°C° 0.1 mm 3 m/s 756 mmHg 88%

    5 Iunie, Vineri

    Timp Temperatura Precipitaţii Vânt Presiune Umiditate
    00:00 +28°C° 0.1 mm 3 m/s 756 mmHg 89%
    01:00 +28°C° 0.1 mm 3 m/s 756 mmHg 89%
    02:00 +28°C° 0 mm 3 m/s 755 mmHg 89%
    03:00 +28°C° 0 mm 3 m/s 755 mmHg 88%
    04:00 +28°C° 0 mm 3 m/s 755 mmHg 88%
    05:00 +28°C° 0 mm 3 m/s 755 mmHg 87%
    06:00 +28°C° 0 mm 3 m/s 755 mmHg 86%
    07:00 +29°C° 0 mm 3 m/s 755 mmHg 84%
    08:00 +30°C° 0 mm 4 m/s 756 mmHg 77%
    09:00 +33°C° 0 mm 4 m/s 756 mmHg 69%
    10:00 +35°C° 0 mm 4 m/s 756 mmHg 61%
    11:00 +35°C° 0 mm 4 m/s 756 mmHg 59%
    12:00 +36°C° 0 mm 4 m/s 755 mmHg 56%
    13:00 +37°C° 0 mm 4 m/s 755 mmHg 53%
    14:00 +36°C° 0.7 mm 4 m/s 755 mmHg 55%
    15:00 +36°C° 0.7 mm 4 m/s 754 mmHg 57%
    16:00 +35°C° 0.7 mm 4 m/s 754 mmHg 58%
    17:00 +34°C° 0.3 mm 4 m/s 754 mmHg 64%
    18:00 +32°C° 0.3 mm 4 m/s 754 mmHg 70%
    19:00 +30°C° 0.3 mm 4 m/s 754 mmHg 76%
    20:00 +29°C° 0 mm 4 m/s 755 mmHg 78%
    21:00 +29°C° 0 mm 4 m/s 756 mmHg 81%
    22:00 +29°C° 0 mm 3 m/s 756 mmHg 83%
    23:00 +29°C° 0 mm 4 m/s 756 mmHg 83%
    Arată mai mult